Theta_e
311 311 311 311 311 311 311 312 312 311 311 311 310 309 308 308 310 311 311 312 313 313 313 313 314 314 314 314 312 308 312 313 314 314 316 313 313 311 310 312 310 309 310 309 310
310 311 311 310 310 310 310 311 311 311 311 311 311 310 308 309 311 312 311 312 313 313 314 313 312 313 312 315 313 311 308 310 310 311 314 313 312 313 313 312 310 310 308 308 310
310 309 309 308 308 308 307 307 308 309 310 311 311 310 308 309 309 309 316 313 313 314 314 314 313 313 314 315 315 311 313 310 312 311 312 313 311 311 312 311 308 311 310 306 308
310 310 310 311 311 310 309 308 307 306 306 308 310 310 308 311 310 311 315 314 314 313 314 312 311 313 313 315 313 316 313 312 314 315 314 313 310 312 310 314 311 307 308 305 304
312 313 314 315 316 316 316 311 308 308 306 304 307 309 309 310 308 312 312 314 314 313 313 310 312 312 314 311 313 315 314 314 312 312 311 310 311 311 311 311 307 306 305 305 304
314 315 317 318 319 319 319 317 310 308 309 306 304 307 311 308 311 311 313 314 314 312 311 310 310 310 312 313 313 312 312 311 310 311 311 313 314 310 310 308 308 306 305 304 304
316 318 319 319 320 320 320 316 313 311 307 308 304 306 312 306 310 312 313 312 312 312 309 311 312 313 312 313 311 311 311 308 308 309 310 308 312 309 311 310 308 307 305 305 303
317 319 319 320 320 321 320 315 313 311 309 307 305 308 305 307 310 311 311 310 310 310 311 311 311 311 312 311 308 309 308 309 309 309 310 311 310 310 307 308 308 306 304 303 304
319 319 320 320 321 321 319 316 310 309 308 307 309 309 306 309 311 311 311 310 309 310 310 311 311 309 310 308 307 306 307 306 306 307 309 310 310 309 309 309 307 308 309 306 306
319 320 321 321 321 320 319 312 311 312 312 314 313 309 308 310 311 311 310 310 309 308 309 309 306 308 306 306 308 308 307 306 306 308 308 309 308 308 309 308 308 308 309 309 309
320 321 321 321 321 319 316 309 306 307 307 308 310 307 308 310 312 309 309 310 308 307 308 308 307 308 309 307 308 307 305 305 305 306 308 308 308 308 308 309 309 309 309 309 308
321 321 321 321 321 319 312 307 306 305 307 306 304 306 307 311 311 310 309 310 309 309 307 308 308 307 307 306 308 308 308 308 308 308 306 307 308 309 308 308 309 310 310 310 309
322 321 321 321 321 319 311 308 308 309 306 307 306 305 306 308 306 309 307 307 309 308 308 309 309 308 308 308 308 307 308 309 308 307 306 306 308 308 307 307 309 309 309 309 307
324 324 322 322 320 318 311 313 307 308 311 310 307 308 308 308 308 307 307 308 309 309 307 308 307 308 308 309 308 309 307 307 308 309 310 308 311 310 309 306 307 307 307 305 305
324 324 322 322 321 318 314 313 308 305 327 313 307 308 308 307 307 307 306 308 308 308 307 308 308 309 309 309 307 309 308 308 308 308 308 308 308 310 307 308 307 307 306 306 304
321 321 322 321 321 317 317 313 307 316 327 314 307 309 309 308 308 306 307 306 306 308 307 307 306 307 307 307 306 307 309 307 305 306 311 308 309 313 307 307 308 307 306 305 305
320 321 320 321 318 318 317 313 321 323 316 312 308 309 307 307 309 307 309 309 309 311 309 307 308 307 307 309 307 308 308 311 310 311 314 307 309 312 310 308 307 307 307 305 302
318 319 319 320 318 317 318 320 324 321 319 314 311 310 313 309 311 308 307 307 306 307 305 311 316 308 305 308 309 307 309 313 314 315 315 306 309 313 307 306 305 304 303 302 302
312 312 316 318 319 318 319 323 321 322 320 320 320 321 319 313 311 310 306 309 309 306 311 308 310 307 305 307 307 307 310 309 312 310 310 311 308 310 311 310 305 304 304 303 302
306 311 313 314 318 316 320 321 317 316 317 316 321 317 317 315 312 310 311 307 308 305 306 310 313 307 306 305 306 307 306 311 309 314 315 312 312 313 312 311 307 306 305 303 302
304 306 307 312 316 314 320 317 316 315 316 318 319 318 317 316 312 315 315 310 307 309 304 307 308 314 307 306 308 306 308 307 308 311 315 317 315 312 312 312 310 306 306 305 303
305 306 306 312 315 314 315 314 313 314 314 316 318 319 318 317 317 318 318 315 310 308 312 308 312 315 314 310 306 307 310 310 314 315 313 314 315 311 309 310 310 310 305 302 301
304 305 309 312 312 312 311 311 312 312 313 315 316 316 315 317 317 315 313 312 310 312 315 312 314 318 316 312 308 311 310 309 311 312 314 315 314 311 310 309 308 303 302 301 299
302 304 305 309 309 311 311 311 311 310 312 312 314 313 314 315 314 315 314 311 305 308 310 311 313 316 317 314 310 312 310 308 309 310 312 314 314 311 310 310 305 300 298 297 297
299 301 301 306 305 307 309 310 310 310 310 310 310 312 312 313 312 311 306 303 303 303 303 303 305 308 305 304 305 306 304 303 304 305 308 307 307 306 300 296 295 298 296 296 295
296 298 299 299 299 302 305 306 306 306 307 308 309 308 304 308 305 305 299 299 299 298 296 297 298 298 298 298 298 300 299 298 299 300 301 302 305 294 294 293 293 296 296 294 293
293 295 296 296 297 298 299 302 301 300 300 300 298 300 299 300 296 295 295 295 295 295 294 295 294 287 296 296 294 293 293 294 295 296 296 301 295 293 292 292 291 295 293 292 291
Wind_Speed
7 8 9 10 10 11 11 11 11 12 12 12 13 13 13 12 11 8 6 5 3 10 8 8 5 4 3 3 3 4 3 2 5 4 5 1 1 2 1 2 3 7 5 2 2
8 9 9 10 11 12 12 12 13 13 13 13 14 15 15 14 11 10 9 8 8 12 11 10 4 5 2 1 1 4 4 8 6 4 5 3 3 3 1 5 5 6 6 5 10
9 9 10 11 12 12 12 12 13 13 13 13 14 14 14 13 5 4 3 9 10 13 8 8 8 4 1 1 4 4 6 4 5 7 5 5 4 4 3 8 9 8 8 6 11
9 10 11 12 13 14 15 16 16 15 15 15 14 13 11 5 6 2 1 9 12 15 9 8 4 5 5 5 4 3 9 7 5 3 3 5 5 4 7 20 6 13 7 5 10
9 10 12 13 15 17 19 18 18 17 16 15 13 12 5 2 9 9 7 8 15 15 9 5 4 5 5 4 4 5 5 5 5 7 7 6 11 7 11 21 10 9 8 10 10
9 10 12 15 17 18 19 19 18 18 17 16 13 9 1 5 6 8 6 11 12 15 9 8 6 6 3 4 5 2 4 7 7 8 6 8 16 6 13 8 11 8 13 12 11
9 10 12 15 18 21 21 21 21 18 16 14 11 4 1 14 6 5 6 6 11 10 5 8 5 4 3 3 3 3 7 8 7 5 7 6 10 10 19 2 13 11 10 10 13
8 10 13 16 19 22 23 23 23 19 15 11 7 4 7 6 9 8 11 5 6 8 5 4 8 2 2 1 7 4 1 5 2 6 3 8 16 16 11 4 13 11 10 9 13
8 10 13 16 19 23 21 23 13 9 6 2 5 5 8 5 3 5 9 4 7 5 4 6 5 2 3 4 5 4 5 6 11 11 4 7 8 9 3 3 11 14 15 11 13
8 10 13 17 21 25 20 15 5 4 6 5 4 2 4 3 2 3 7 10 4 6 4 5 4 2 3 4 6 8 5 6 7 5 3 5 13 11 20 6 14 16 19 21 20
9 11 13 16 20 21 20 4 5 3 3 6 4 4 4 1 4 2 5 7 4 5 5 1 4 8 15 11 3 3 5 7 10 11 4 12 18 17 16 18 21 23 22 18 20
10 11 12 14 18 16 10 5 2 1 8 10 11 7 6 1 3 1 8 5 4 6 5 3 6 14 3 4 8 8 8 15 11 16 4 14 21 19 18 18 24 23 21 23 14
12 12 11 12 15 8 7 3 1 1 3 9 4 3 4 8 7 7 10 4 4 6 8 8 6 4 5 4 9 5 7 14 11 8 6 9 12 7 8 16 21 20 24 19 10
14 14 12 11 6 5 1 4 2 1 3 7 3 1 1 1 2 1 4 4 2 7 6 6 3 6 4 8 6 7 12 14 10 4 4 5 11 2 7 10 5 18 15 11 10
16 15 12 7 5 2 1 5 3 1 6 2 1 2 1 4 1 3 0 2 3 4 4 7 5 4 4 8 7 11 2 3 2 3 5 1 3 1 5 6 14 10 12 13 10
10 11 11 8 7 3 1 5 2 3 8 3 1 3 1 1 1 2 2 4 3 3 2 8 2 6 9 5 8 2 2 4 4 2 5 9 7 20 4 5 4 5 8 10 9
7 6 10 6 4 9 4 5 2 5 4 4 3 3 2 2 2 3 3 3 4 2 4 3 5 4 3 3 2 4 5 4 4 1 8 2 4 16 10 15 9 9 11 11 8
4 4 7 11 8 8 4 3 9 2 3 3 1 1 2 1 4 1 2 4 6 3 1 4 14 7 5 8 8 7 9 5 6 13 18 6 8 16 10 9 8 10 8 7 7
5 4 4 14 13 13 2 6 5 6 5 5 4 8 21 6 6 0 6 6 7 10 7 4 13 3 5 3 7 5 6 6 4 1 3 10 15 16 24 17 7 9 4 7 6
2 1 6 8 16 7 5 16 7 9 3 1 6 7 7 4 4 5 8 4 5 9 2 4 14 7 2 2 3 5 1 2 0 4 12 9 19 16 25 20 8 9 10 10 8
1 2 4 9 16 2 9 6 4 8 6 6 9 17 10 3 7 11 6 4 4 2 6 4 6 15 3 8 11 2 3 4 2 6 17 20 16 21 25 24 15 5 3 8 9
3 1 1 15 5 4 11 7 2 8 4 9 6 9 10 6 13 13 9 3 3 1 3 3 3 9 17 6 6 6 13 13 12 14 15 18 21 17 14 19 20 24 6 6 9
2 2 4 11 6 10 9 8 5 5 12 5 8 8 9 9 8 11 10 2 7 3 2 3 5 5 4 4 4 3 3 8 15 18 27 22 21 15 13 14 17 18 18 15 15
1 1 2 4 6 6 11 17 19 6 11 10 11 8 13 15 13 11 9 2 5 2 2 4 6 11 14 14 5 7 9 13 10 9 14 15 16 16 19 25 18 18 12 13 13
1 2 1 3 4 9 10 12 14 8 4 3 3 10 12 9 10 13 4 4 2 5 3 2 4 4 11 15 10 15 19 21 24 23 22 27 27 17 12 13 14 13 12 14 17
2 2 2 3 3 3 4 12 19 20 13 18 15 6 0 4 3 0 2 0 4 3 2 1 4 5 15 20 15 18 20 25 26 27 27 24 18 6 9 14 15 12 12 15 17
2 1 1 2 1 1 2 4 2 4 8 8 7 3 1 2 2 4 6 7 7 7 6 4 2 2 15 22 12 12 17 17 15 7 4 5 5 8 11 14 15 12 8 12 14
Wind_Direction
1 358 356 354 353 352 351 351 350 349 349 348 350 352 347 333 315 283 243 232 214 205 181 158 142 119 102 96 101 137 65 260 253 202 259 213 286 202 128 279 222 208 222 237 198
346 343 341 341 339 338 337 335 333 333 333 334 337 344 344 334 314 255 271 227 212 192 179 164 145 127 66 119 46 103 139 223 213 211 250 292 216 256 268 248 246 280 247 221 178
340 341 343 343 341 338 332 325 318 315 316 318 324 335 342 337 332 257 326 204 200 191 191 166 136 115 156 141 197 170 209 216 262 240 280 275 288 224 194 265 217 226 252 179 191
341 348 351 351 348 347 341 331 322 313 306 305 311 324 336 342 307 283 308 177 184 185 163 141 110 137 182 207 184 210 241 206 245 219 284 261 307 258 195 260 222 222 239 168 201
353 356 356 356 356 351 346 337 325 316 307 301 301 313 335 21 249 269 271 187 179 185 181 140 146 154 200 200 158 214 242 232 236 272 258 276 249 234 253 260 241 241 229 230 223
353 356 355 354 351 346 339 333 326 315 308 304 299 310 71 251 255 260 221 180 189 188 181 164 196 204 217 229 180 244 271 271 270 244 237 231 273 149 250 264 261 227 240 238 227
344 351 351 350 349 345 338 332 322 309 298 291 289 284 167 242 248 254 205 206 205 200 154 206 175 155 156 277 302 322 317 310 221 243 232 187 288 229 256 199 271 267 253 258 240
338 343 347 347 345 344 339 334 323 312 296 266 253 171 244 264 274 256 228 188 185 193 199 171 196 148 190 265 357 351 245 326 270 156 236 153 267 276 268 214 275 292 292 253 255
331 338 343 344 344 343 340 333 332 347 349 163 156 145 263 287 273 262 211 171 143 138 147 125 126 146 43 93 1 351 250 233 310 206 154 186 252 269 180 216 283 288 289 280 283
319 331 339 343 345 344 342 331 353 4 75 92 92 31 268 261 175 152 169 151 121 115 69 59 55 105 44 107 228 229 228 250 249 292 178 246 259 280 290 243 264 277 277 273 269
311 321 334 341 346 348 349 344 13 343 12 214 219 256 289 226 159 96 152 121 97 66 156 24 127 204 225 204 199 237 232 245 260 267 277 253 265 265 266 283 270 269 266 266 259
298 309 324 333 344 349 8 61 88 249 302 259 252 264 267 331 343 149 159 137 149 189 115 58 211 229 129 167 237 258 287 272 281 272 204 276 278 270 254 244 255 265 274 266 272
286 296 307 320 336 351 49 70 352 321 250 291 221 199 236 164 215 227 159 143 162 160 197 194 221 193 186 223 243 200 232 265 256 310 245 297 280 255 276 245 251 268 260 282 267
281 286 292 309 317 339 17 11 353 294 311 276 288 325 110 135 235 290 169 140 165 219 171 233 272 214 143 231 199 262 237 251 269 348 252 29 294 177 228 249 233 255 276 266 275
276 275 276 270 295 322 54 352 351 238 302 257 254 314 62 156 129 14 72 67 174 182 132 256 176 172 178 223 150 230 163 244 180 204 316 184 252 93 89 234 251 263 267 272 270
275 282 258 243 231 193 96 13 353 72 249 321 28 360 39 31 27 32 44 44 89 169 254 247 306 181 213 219 190 67 68 49 54 82 278 181 178 287 178 206 263 253 281 279 313
259 254 233 207 186 161 151 53 344 216 358 354 6 24 353 291 282 175 152 176 189 247 239 217 218 254 180 209 138 144 69 321 324 51 246 131 222 261 283 280 255 269 281 288 340
259 251 242 218 181 153 153 79 233 170 286 318 350 108 286 3 251 102 102 249 226 202 130 249 290 195 183 202 189 180 165 169 241 279 282 144 250 266 237 265 263 234 246 292 295
292 316 262 229 206 186 156 208 218 191 218 200 217 262 283 212 210 215 216 240 233 177 198 211 262 219 223 163 150 179 177 191 225 104 286 263 269 292 279 272 244 243 214 266 258
48 336 233 233 223 167 224 238 210 206 201 320 241 218 237 221 206 201 201 193 231 195 136 274 285 182 202 92 233 189 192 182 36 225 244 232 262 261 279 289 292 287 313 346 311
33 49 255 205 185 204 238 235 266 223 194 230 253 259 246 192 232 257 243 247 208 218 182 207 210 269 136 196 210 125 239 236 276 215 258 264 254 260 271 285 294 254 266 277 282
127 188 230 160 198 224 244 235 194 234 244 248 242 247 259 268 271 265 242 273 296 81 199 241 266 241 254 228 216 215 242 236 249 257 242 257 254 259 287 296 305 313 317 273 330
180 256 194 184 232 230 251 273 272 251 238 234 242 242 249 244 262 227 249 42 42 42 310 18 227 270 295 300 57 199 278 267 289 275 259 263 266 269 294 317 340 20 16 16 7
117 249 269 229 234 249 248 253 253 225 252 241 256 269 272 269 260 272 282 336 357 53 9 230 220 248 263 270 335 278 321 306 290 279 300 286 306 316 310 304 320 348 12 15 16
151 225 222 217 237 259 251 270 273 280 228 332 264 251 263 267 274 267 308 351 350 25 79 50 284 331 308 297 303 294 286 280 273 278 269 281 280 302 12 18 348 322 352 14 12
147 229 356 306 322 303 218 250 265 273 278 268 263 292 37 258 297 359 60 128 283 341 32 352 270 326 287 283 276 278 281 274 274 271 268 274 276 11 3 351 347 346 0 10 2
154 93 104 275 253 12 239 278 55 39 46 63 50 348 305 156 174 207 230 233 246 260 255 232 212 74 276 288 314 292 260 261 267 327 302 281 29 352 344 337 339 327 3 348 343